This is the latest recevied weather packets stored in our database for station/object WX7FGZ-3. If no packets are shown the sender has not sent any weather packets the latest 10 day(s).
| Time | Temp. | Humidity | Pressure | Rain* | Wind** | Luminosity | Snow |
|---|---|---|---|---|---|---|---|
| 1777519687 | 6.11° C | 31% | 1011.8 hPa | 0 mm | - | - | - |
| 1777519387 | 6.67° C | 29% | 1011.6 hPa | 0 mm | - | - | - |
| 1777519087 | 7.22° C | 29% | 1011.8 hPa | 0 mm | - | - | - |
| 1777518787 | 7.78° C | 28% | 1011.6 hPa | 0 mm | - | - | - |
| 1777518486 | 7.78° C | 29% | 1011.6 hPa | 0 mm | - | - | - |
| 1777517586 | 8.33° C | 28% | 1011.6 hPa | 0 mm | - | - | - |
| 1777517285 | 8.33° C | 27% | 1011.4 hPa | 0 mm | - | - | - |
| 1777516985 | 8.89° C | 27% | 1011.6 hPa | 0 mm | - | - | - |
| 1777516685 | 8.89° C | 27% | 1011.5 hPa | 0 mm | - | - | - |
| 1777516385 | 9.44° C | 27% | 1011.3 hPa | 0 mm | - | - | - |
| 1777516084 | 10° C | 26% | 1011.3 hPa | 0 mm | - | - | - |
| 1777515483 | 10.56° C | 26% | 1011.2 hPa | 0 mm | - | - | - |
| 1777515184 | 10.56° C | 25% | 1011.3 hPa | 0 mm | - | - | - |
| 1777514883 | 11.11° C | 25% | 1011 hPa | 0 mm | - | - | - |
| 1777513081 | 13.33° C | 24% | 1010.8 hPa | 0 mm | - | - | - |
| 1777512180 | 13.89° C | 23% | 1010.4 hPa | 0 mm | - | - | - |
| 1777511580 | 14.44° C | 22% | 1010.5 hPa | 0 mm | - | - | - |
| 1777510979 | 15° C | 22% | 1010.5 hPa | 0 mm | - | - | - |
| 1777510679 | 15° C | 22% | 1010.6 hPa | 0 mm | - | - | - |
| 1777510379 | 15° C | 22% | 1010.7 hPa | 0 mm | - | - | - |
| 1777509779 | 15° C | 21% | 1010.5 hPa | 0 mm | - | - | - |
| 1777509178 | 15.56° C | 20% | 1010.5 hPa | 0 mm | - | - | - |
| 1777505274 | 16.67° C | 18% | 1010.3 hPa | 0 mm | - | - | - |
| 1777503472 | 17.22° C | 18% | 1010.3 hPa | 0 mm | - | - | - |
| 1777503172 | 17.22° C | 17% | 1010.1 hPa | 0 mm | - | - | - |
* Rain latest hour (hover to see other rain measurements)
** Current wind speed in m/s (hover to see current wind gust speed)